Location: Newark
(55.8871°S, 37.4681°W)
Time: 01:58:54
(UTC+00:00)

ISS - Visible Passes

Search period start: 15 October 2019 00:00
Search period end: 25 October 2019 00:00
Orbit: 411 x 421 km, 51.6° (Epoch: 14 October)

Date Brightness Start Highest point End Pass type
(mag) Time Alt. Az. Time Alt. Az. Time Alt. Az.
15 Oct -2.0 05:16:05 19° N 05:16:05 19° N 05:17:38 10° NNE visible
16 Oct -1.4 06:03:13 10° NNW 06:03:13 10° NNW 06:03:27 10° NNW visible
19 Oct -1.7 23:33:23 10° NW 23:34:18 15° NNW 23:34:18 15° NNW visible
20 Oct -2.3 22:45:18 10° NNW 22:47:51 20° NNE 22:48:43 18° NE visible
21 Oct -1.5 00:20:50 10° WNW 00:21:39 16° NW 00:21:39 16° NW visible
21 Oct -3.1 23:32:27 10° NW 23:35:35 34° NNE 23:35:39 34° NNE visible
22 Oct -2.8 22:44:08 10° NW 22:47:09 29° NNE 22:49:24 15° ENE visible
23 Oct -2.5 00:20:14 10° WNW 00:22:18 29° NW 00:22:18 29° NW visible
23 Oct -3.2 23:31:46 10° WNW 23:35:00 40° N 23:35:51 33° NE visible
24 Oct -1.2 01:08:16 10° W 01:08:45 13° WNW 01:08:45 13° WNW visible
24 Oct -3.1 22:43:20 10° WNW 22:46:32 37° N 22:49:16 13° ENE visible
